| time (UTC) | temp F | wind direction | speed MPH | gust MPH | rain 1hr in | rain 24hr in | rain mn in | humidity % | barometer mb |
| 20260507015720 | 39 | 286 | 4.0 | 5.0 | 0.00 | 0.00 | 0.00 | 72 | 1013.9 |
| 20260507015233 | 39 | 286 | 3.0 | 5.0 | 0.00 | 0.00 | 0.00 | 71 | 1013.9 |
| 20260507014735 | 39 | 286 | 3.0 | 5.0 | 0.00 | 0.00 | 0.00 | 71 | 1013.9 |
| 20260507014219 | 39 | 286 | 1.0 | 5.0 | 0.00 | 0.00 | 0.00 | 71 | 1013.8 |
| 20260507013730 | 39 | 286 | 3.0 | 6.0 | 0.00 | 0.00 | 0.00 | 71 | 1013.9 |
| 20260507013246 | 39 | 286 | 4.0 | 5.0 | 0.00 | 0.00 | 0.00 | 71 | 1013.7 |
| 20260507012721 | 39 | 286 | 4.0 | 6.0 | 0.00 | 0.00 | 0.00 | 70 | 1013.6 |
| 20260507012232 | 39 | 286 | 3.0 | 5.0 | 0.00 | 0.00 | 0.00 | 71 | 1013.5 |
| 20260507011735 | 40 | 286 | 3.0 | 6.0 | 0.00 | 0.00 | 0.00 | 70 | 1013.5 |
| 20260507011218 | 40 | 286 | 4.0 | 5.0 | 0.00 | 0.00 | 0.00 | 67 | 1013.5 |
| 20260507010730 | 40 | 286 | 2.0 | 8.0 | 0.00 | 0.00 | 0.00 | 66 | 1013.5 |
| 20260507010244 | 40 | 286 | 3.0 | 8.0 | 0.00 | 0.00 | 0.00 | 65 | 1013.5 |
| 20260507005738 | 40 | 286 | 4.0 | 8.0 | 0.00 | 0.00 | 0.00 | 65 | 1013.5 |
| 20260507005222 | 40 | 286 | 3.0 | 7.0 | 0.00 | 0.00 | 0.00 | 63 | 1013.4 |
| 20260507004730 | 40 | 286 | 2.0 | 8.0 | 0.00 | 0.00 | 0.00 | 62 | 1013.5 |
| 20260507004235 | 40 | 286 | 5.0 | 7.0 | 0.00 | 0.00 | 0.00 | 62 | 1013.4 |
| 20260507003739 | 40 | 286 | 4.0 | 7.0 | 0.00 | 0.00 | 0.00 | 62 | 1013.4 |
| 20260507003224 | 40 | 286 | 3.0 | 7.0 | 0.00 | 0.00 | 0.00 | 62 | 1013.3 |
| 20260507002726 | 40 | 286 | 4.0 | 8.0 | 0.00 | 0.00 | 0.00 | 62 | 1013.3 |
| 20260507002239 | 40 | 286 | 5.0 | 9.0 | 0.00 | 0.00 | 0.00 | 62 | 1013.3 |
| 20260507001724 | 40 | 286 | 7.0 | 9.0 | 0.00 | 0.00 | 0.00 | 62 | 1013.4 |
| 20260507001235 | 40 | 287 | 5.0 | 9.0 | 0.00 | 0.00 | 0.00 | 62 | 1013.3 |
| 20260507000737 | 40 | 287 | 3.0 | 9.0 | 0.00 | 0.00 | 0.00 | 62 | 1013.4 |
| 20260507000222 | 40 | 287 | 6.0 | 10.0 | 0.00 | 0.00 | 0.00 | 62 | 1013.4 |
| 20260506235746 | 40 | 287 | 5.0 | 10.0 | 0.00 | 0.00 | 0.00 | 61 | 1013.4 |
| 20260506235230 | 40 | 287 | 6.0 | 10.0 | 0.00 | 0.00 | 0.00 | 61 | 1013.3 |
| 20260506234743 | 41 | 286 | 7.0 | 10.0 | 0.00 | 0.00 | 0.00 | 61 | 1013.4 |
| 20260506234227 | 41 | 290 | 5.0 | 10.0 | 0.00 | 0.00 | 0.00 | 62 | 1013.3 |
| 20260506233739 | 41 | 290 | 6.0 | 10.0 | 0.00 | 0.00 | 0.00 | 61 | 1013.4 |
| 20260506233240 | 41 | 288 | 6.0 | 9.0 | 0.00 | 0.00 | 0.00 | 61 | 1013.4 |
| 20260506232737 | 41 | 287 | 3.0 | 10.0 | 0.00 | 0.00 | 0.00 | 60 | 1013.4 |
| 20260506232241 | 41 | 288 | 6.0 | 10.0 | 0.00 | 0.00 | 0.00 | 59 | 1013.4 |
| 20260506231726 | 41 | 288 | 6.0 | 9.0 | 0.00 | 0.00 | 0.00 | 60 | 1013.4 |
| 20260506231238 | 41 | 290 | 4.0 | 9.0 | 0.00 | 0.00 | 0.00 | 59 | 1013.4 |
| 20260506230741 | 41 | 290 | 6.0 | 9.0 | 0.00 | 0.00 | 0.00 | 59 | 1013.4 |
| 20260506230245 | 41 | 293 | 6.0 | 9.0 | 0.00 | 0.00 | 0.00 | 58 | 1013.4 |
| 20260506225735 | 41 | 294 | 5.0 | 10.0 | 0.00 | 0.00 | 0.00 | 58 | 1013.4 |
| 20260506225238 | 41 | 295 | 5.0 | 10.0 | 0.00 | 0.00 | 0.00 | 58 | 1013.4 |
| 20260506224742 | 42 | 290 | 6.0 | 9.0 | 0.00 | 0.00 | 0.00 | 58 | 1013.4 |
| 20260506224246 | 42 | 288 | 5.0 | 10.0 | 0.00 | 0.00 | 0.00 | 58 | 1013.4 |
| 20260506223731 | 41 | 287 | 7.0 | 11.0 | 0.00 | 0.00 | 0.00 | 59 | 1013.4 |
| 20260506223247 | 41 | 288 | 7.0 | 11.0 | 0.00 | 0.00 | 0.00 | 58 | 1013.4 |
| 20260506222743 | 41 | 294 | 7.0 | 11.0 | 0.00 | 0.00 | 0.00 | 58 | 1013.4 |
| 20260506222227 | 41 | 279 | 6.0 | 11.0 | 0.00 | 0.00 | 0.00 | 57 | 1013.4 |
| 20260506221736 | 42 | 286 | 7.0 | 12.0 | 0.00 | 0.00 | 0.00 | 57 | 1013.5 |
| 20260506221241 | 42 | 286 | 6.0 | 12.0 | 0.00 | 0.00 | 0.00 | 58 | 1013.5 |
| 20260506220745 | 42 | 297 | 7.0 | 12.0 | 0.00 | 0.00 | 0.00 | 57 | 1013.5 |
| 20260506220229 | 42 | 307 | 7.0 | 11.0 | 0.00 | 0.00 | 0.00 | 57 | 1013.5 |
| 20260506215731 | 42 | 290 | 7.0 | 11.0 | 0.00 | 0.00 | 0.00 | 57 | 1013.5 |
| 20260506215243 | 42 | 296 | 7.0 | 13.0 | 0.00 | 0.00 | 0.00 | 58 | 1013.4 |
| 20260506214727 | 42 | 284 | 10.0 | 13.0 | 0.00 | 0.00 | 0.00 | 57 | 1013.4 |
| 20260506214236 | 42 | 290 | 9.0 | 13.0 | 0.00 | 0.00 | 0.00 | 58 | 1013.4 |
| 20260506213739 | 42 | 296 | 8.0 | 13.0 | 0.00 | 0.00 | 0.00 | 58 | 1013.5 |
| 20260506213243 | 42 | 296 | 9.0 | 13.0 | 0.00 | 0.00 | 0.00 | 59 | 1013.5 |
| 20260506212738 | 42 | 294 | 6.0 | 12.0 | 0.00 | 0.00 | 0.00 | 59 | 1013.5 |
| 20260506212241 | 42 | 285 | 8.0 | 11.0 | 0.00 | 0.00 | 0.00 | 58 | 1013.5 |
| 20260506211725 | 42 | 269 | 8.0 | 11.0 | 0.00 | 0.00 | 0.00 | 57 | 1013.5 |
| 20260506211236 | 42 | 265 | 8.0 | 13.0 | 0.00 | 0.00 | 0.00 | 59 | 1013.5 |
| 20260506210719 | 42 | 286 | 9.0 | 15.0 | 0.00 | 0.00 | 0.00 | 58 | 1013.4 |
| 20260506210246 | 42 | 312 | 8.0 | 15.0 | 0.00 | 0.00 | 0.00 | 59 | 1013.3 |
| 20260506205741 | 42 | 279 | 10.0 | 15.0 | 0.00 | 0.00 | 0.00 | 58 | 1013.3 |
| 20260506205224 | 42 | 283 | 10.0 | 17.0 | 0.00 | 0.00 | 0.00 | 58 | 1013.4 |
| 20260506204736 | 42 | 284 | 12.0 | 17.0 | 0.00 | 0.00 | 0.00 | 58 | 1013.3 |
| 20260506204240 | 42 | 284 | 9.0 | 15.0 | 0.00 | 0.00 | 0.00 | 58 | 1013.4 |
| 20260506203744 | 42 | 275 | 9.0 | 14.0 | 0.00 | 0.00 | 0.00 | 57 | 1013.4 |
| 20260506203244 | 42 | 286 | 10.0 | 15.0 | 0.00 | 0.00 | 0.00 | 58 | 1013.4 |
| 20260506202739 | 42 | 282 | 10.0 | 15.0 | 0.00 | 0.00 | 0.00 | 59 | 1013.4 |
| 20260506202241 | 42 | 288 | 10.0 | 15.0 | 0.00 | 0.00 | 0.00 | 58 | 1013.4 |
| 20260506201723 | 43 | 281 | 10.0 | 16.0 | 0.00 | 0.00 | 0.00 | 59 | 1013.5 |
| 20260506201236 | 43 | 302 | 10.0 | 16.0 | 0.00 | 0.00 | 0.00 | 57 | 1013.4 |
| 20260506200738 | 43 | 283 | 11.0 | 18.0 | 0.00 | 0.00 | 0.00 | 58 | 1013.5 |
| 20260506200219 | 43 | 276 | 11.0 | 18.0 | 0.00 | 0.00 | 0.00 | 57 | 1013.5 |
| 20260506195740 | 43 | 300 | 9.0 | 16.0 | 0.00 | 0.00 | 0.00 | 59 | 1013.5 |
| 20260506195243 | 43 | 288 | 10.0 | 17.0 | 0.00 | 0.00 | 0.00 | 58 | 1013.5 |
| 20260506194747 | 43 | 277 | 7.0 | 17.0 | 0.00 | 0.00 | 0.00 | 57 | 1013.5 |
| 20260506194230 | 43 | 286 | 8.0 | 15.0 | 0.00 | 0.00 | 0.00 | 59 | 1013.4 |
| 20260506193742 | 43 | 303 | 11.0 | 16.0 | 0.00 | 0.00 | 0.00 | 59 | 1013.4 |
| 20260506193245 | 43 | 279 | 10.0 | 15.0 | 0.00 | 0.00 | 0.00 | 60 | 1013.4 |
| 20260506192741 | 42 | 294 | 9.0 | 14.0 | 0.00 | 0.00 | 0.00 | 59 | 1013.4 |
| 20260506192241 | 42 | 271 | 9.0 | 15.0 | 0.00 | 0.00 | 0.00 | 60 | 1013.5 |
| 20260506191723 | 42 | 293 | 11.0 | 16.0 | 0.00 | 0.00 | 0.00 | 59 | 1013.5 |
| 20260506191233 | 43 | 269 | 12.0 | 18.0 | 0.00 | 0.00 | 0.00 | 60 | 1013.5 |
| 20260506190736 | 43 | 311 | 12.0 | 18.0 | 0.00 | 0.00 | 0.00 | 60 | 1013.5 |
| 20260506190219 | 42 | 287 | 13.0 | 18.0 | 0.00 | 0.00 | 0.00 | 61 | 1013.5 |
| 20260506185744 | 43 | 270 | 10.0 | 18.0 | 0.00 | 0.00 | 0.00 | 60 | 1013.5 |
| 20260506185228 | 43 | 307 | 12.0 | 18.0 | 0.00 | 0.00 | 0.00 | 61 | 1013.5 |
| 20260506184741 | 43 | 280 | 9.0 | 17.0 | 0.00 | 0.00 | 0.00 | 59 | 1013.4 |
| 20260506184241 | 43 | 295 | 11.0 | 20.0 | 0.00 | 0.00 | 0.00 | 61 | 1013.5 |
| 20260506183744 | 43 | 285 | 13.0 | 20.0 | 0.00 | 0.00 | 0.00 | 61 | 1013.5 |
| 20260506183248 | 43 | 282 | 11.0 | 20.0 | 0.00 | 0.00 | 0.00 | 64 | 1013.5 |
| 20260506182744 | 43 | 283 | 9.0 | 17.0 | 0.00 | 0.00 | 0.00 | 65 | 1013.4 |
| 20260506182229 | 43 | 285 | 12.0 | 17.0 | 0.00 | 0.00 | 0.00 | 66 | 1013.4 |
| 20260506181742 | 43 | 289 | 12.0 | 17.0 | 0.00 | 0.00 | 0.00 | 66 | 1013.4 |
| 20260506181226 | 43 | 284 | 11.0 | 17.0 | 0.00 | 0.00 | 0.00 | 66 | 1013.4 |
| 20260506180721 | 43 | 290 | 10.0 | 17.0 | 0.00 | 0.00 | 0.00 | 67 | 1013.5 |
| 20260506180229 | 44 | 287 | 13.0 | 17.0 | 0.00 | 0.00 | 0.00 | 65 | 1013.5 |
| 20260506175744 | 43 | 306 | 9.0 | 18.0 | 0.00 | 0.00 | 0.00 | 67 | 1013.5 |
| 20260506175248 | 43 | 274 | 12.0 | 18.0 | 0.00 | 0.00 | 0.00 | 68 | 1013.5 |
| 20260506174732 | 43 | 286 | 10.0 | 17.0 | 0.00 | 0.00 | 0.00 | 70 | 1013.6 |
| 20260506174244 | 43 | 299 | 11.0 | 17.0 | 0.00 | 0.00 | 0.00 | 69 | 1013.6 |
| 20260506173729 | 43 | 292 | 12.0 | 17.0 | 0.00 | 0.00 | 0.00 | 66 | 1013.7 |
| 20260506173247 | 43 | 314 | 11.0 | 16.0 | 0.00 | 0.00 | 0.00 | 65 | 1013.6 |
| 20260506172736 | 43 | 294 | 11.0 | 18.0 | 0.00 | 0.00 | 0.00 | 64 | 1013.7 |
| 20260506172221 | 43 | 287 | 10.0 | 20.0 | 0.00 | 0.00 | 0.00 | 64 | 1013.7 |
| 20260506171734 | 43 | 278 | 12.0 | 20.0 | 0.00 | 0.00 | 0.00 | 63 | 1013.7 |
| 20260506171239 | 43 | 267 | 13.0 | 20.0 | 0.00 | 0.00 | 0.00 | 64 | 1013.8 |
| 20260506170742 | 42 | 257 | 11.0 | 19.0 | 0.00 | 0.00 | 0.00 | 64 | 1013.9 |
| 20260506170246 | 42 | 292 | 10.0 | 19.0 | 0.00 | 0.00 | 0.00 | 63 | 1013.9 |
| 20260506165724 | 42 | 267 | 11.0 | 20.0 | 0.00 | 0.00 | 0.00 | 63 | 1013.9 |
| 20260506165233 | 42 | 285 | 13.0 | 20.0 | 0.00 | 0.00 | 0.00 | 64 | 1014.0 |
| 20260506164739 | 42 | 282 | 13.0 | 23.0 | 0.00 | 0.00 | 0.00 | 63 | 1013.9 |
| 20260506164244 | 42 | 273 | 14.0 | 23.0 | 0.00 | 0.00 | 0.00 | 62 | 1014.0 |
| 20260506163748 | 42 | 282 | 13.0 | 23.0 | 0.00 | 0.00 | 0.00 | 62 | 1013.9 |
| 20260506163233 | 42 | 278 | 16.0 | 23.0 | 0.00 | 0.00 | 0.00 | 63 | 1013.9 |
| 20260506162729 | 42 | 278 | 15.0 | 21.0 | 0.00 | 0.00 | 0.00 | 63 | 1013.9 |
| 20260506162243 | 42 | 263 | 14.0 | 23.0 | 0.00 | 0.00 | 0.00 | 63 | 1013.9 |
| 20260506161727 | 42 | 277 | 15.0 | 23.0 | 0.00 | 0.00 | 0.00 | 63 | 1013.8 |
| 20260506161236 | 43 | 271 | 13.0 | 22.0 | 0.00 | 0.00 | 0.00 | 62 | 1013.8 |
| 20260506160721 | 43 | 271 | 13.0 | 19.0 | 0.00 | 0.00 | 0.00 | 61 | 1013.8 |
| 20260506160235 | 43 | 290 | 12.0 | 18.0 | 0.00 | 0.00 | 0.00 | 59 | 1013.8 |
| 20260506155730 | 43 | 294 | 13.0 | 18.0 | 0.00 | 0.00 | 0.00 | 60 | 1013.7 |
| 20260506155242 | 44 | 290 | 11.0 | 20.0 | 0.00 | 0.00 | 0.00 | 59 | 1013.7 |
| 20260506154726 | 44 | 286 | 11.0 | 19.0 | 0.00 | 0.00 | 0.00 | 59 | 1013.7 |
| 20260506154238 | 44 | 296 | 11.0 | 18.0 | 0.00 | 0.00 | 0.00 | 58 | 1013.6 |
| 20260506153739 | 43 | 284 | 11.0 | 18.0 | 0.00 | 0.00 | 0.00 | 57 | 1013.5 |
| 20260506153223 | 43 | 294 | 8.0 | 15.0 | 0.00 | 0.00 | 0.00 | 56 | 1013.4 |
| 20260506152747 | 43 | 292 | 10.0 | 17.0 | 0.00 | 0.00 | 0.00 | 56 | 1013.4 |
| 20260506152228 | 43 | 278 | 10.0 | 17.0 | 0.00 | 0.00 | 0.00 | 56 | 1013.4 |
| 20260506151741 | 44 | 291 | 10.0 | 15.0 | 0.00 | 0.00 | 0.00 | 54 | 1013.4 |
| 20260506151225 | 44 | 296 | 10.0 | 16.0 | 0.00 | 0.00 | 0.00 | 56 | 1013.4 |
| 20260506150739 | 43 | 269 | 12.0 | 17.0 | 0.00 | 0.00 | 0.00 | 56 | 1013.4 |
| 20260506150224 | 44 | 270 | 13.0 | 19.0 | 0.00 | 0.00 | 0.00 | 55 | 1013.3 |
| 20260506145747 | 43 | 272 | 11.0 | 19.0 | 0.00 | 0.00 | 0.00 | 54 | 1013.2 |
| 20260506145234 | 43 | 277 | 11.0 | 19.0 | 0.00 | 0.00 | 0.00 | 55 | 1013.2 |
| 20260506144740 | 43 | 271 | 12.0 | 16.0 | 0.00 | 0.00 | 0.00 | 54 | 1013.2 |
| 20260506144245 | 43 | 292 | 9.0 | 16.0 | 0.00 | 0.00 | 0.00 | 56 | 1013.2 |
| 20260506143729 | 43 | 281 | 12.0 | 16.0 | 0.00 | 0.00 | 0.00 | 55 | 1013.2 |
| 20260506143244 | 43 | 267 | 9.0 | 15.0 | 0.00 | 0.00 | 0.00 | 56 | 1013.1 |
| 20260506142721 | 42 | 280 | 9.0 | 17.0 | 0.00 | 0.00 | 0.00 | 57 | 1013.0 |
| 20260506142236 | 42 | 281 | 8.0 | 17.0 | 0.00 | 0.00 | 0.00 | 56 | 1013.1 |
| 20260506141737 | 42 | 260 | 10.0 | 17.0 | 0.00 | 0.00 | 0.00 | 55 | 1013.0 |
| 20260506141222 | 42 | 298 | 11.0 | 16.0 | 0.00 | 0.00 | 0.00 | 57 | 1012.9 |
| 20260506140736 | 42 | 289 | 8.0 | 15.0 | 0.00 | 0.00 | 0.00 | 57 | 1012.9 |
| 20260506140220 | 42 | 290 | 9.0 | 15.0 | 0.00 | 0.00 | 0.00 | 56 | 1012.8 |
| 20260506135726 | 42 | 300 | 9.0 | 15.0 | 0.00 | 0.00 | 0.00 | 55 | 1012.7 |
| 20260506135239 | 42 | 279 | 9.0 | 14.0 | 0.00 | 0.00 | 0.00 | 56 | 1012.6 |
| 20260506134724 | 42 | 282 | 9.0 | 14.0 | 0.00 | 0.00 | 0.00 | 56 | 1012.6 |
| 20260506134237 | 41 | 269 | 6.0 | 12.0 | 0.00 | 0.00 | 0.00 | 55 | 1012.7 |
| 20260506133738 | 42 | 288 | 6.0 | 12.0 | 0.00 | 0.00 | 0.00 | 56 | 1012.7 |
| 20260506133243 | 42 | 301 | 6.0 | 10.0 | 0.00 | 0.00 | 0.00 | 57 | 1012.6 |
| 20260506132739 | 41 | 296 | 7.0 | 12.0 | 0.00 | 0.00 | 0.00 | 57 | 1012.7 |
| 20260506132224 | 41 | 313 | 8.0 | 12.0 | 0.00 | 0.00 | 0.00 | 57 | 1012.7 |
| 20260506131737 | 41 | 294 | 3.0 | 10.0 | 0.00 | 0.00 | 0.00 | 59 | 1012.6 |
| 20260506131222 | 40 | 298 | 7.0 | 10.0 | 0.00 | 0.00 | 0.00 | 61 | 1012.6 |
| 20260506130736 | 41 | 291 | 4.0 | 10.0 | 0.00 | 0.00 | 0.00 | 60 | 1012.6 |
| 20260506130222 | 40 | 282 | 6.0 | 12.0 | 0.00 | 0.00 | 0.00 | 59 | 1012.8 |
| 20260506125743 | 41 | 307 | 7.0 | 14.0 | 0.00 | 0.00 | 0.00 | 60 | 1012.8 |
| 20260506125247 | 40 | 266 | 6.0 | 14.0 | 0.00 | 0.00 | 0.00 | 60 | 1012.8 |
| 20260506124730 | 40 | 259 | 0.0 | 8.0 | 0.00 | 0.00 | 0.00 | 64 | 1012.7 |
| 20260506124246 | 40 | 240 | 4.0 | 8.0 | 0.00 | 0.00 | 0.00 | 65 | 1012.7 |
| 20260506123728 | 39 | 223 | 4.0 | 8.0 | 0.00 | 0.00 | 0.00 | 64 | 1012.5 |
| 20260506123242 | 39 | 230 | 2.0 | 8.0 | 0.00 | 0.00 | 0.00 | 66 | 1012.6 |
| 20260506122740 | 39 | 259 | 4.0 | 8.0 | 0.00 | 0.00 | 0.00 | 71 | 1012.7 |
| 20260506122238 | 38 | 270 | 1.0 | 8.0 | 0.00 | 0.00 | 0.00 | 75 | 1012.6 |
| 20260506121741 | 37 | 279 | 0.0 | 0.0 | 0.00 | 0.00 | 0.00 | 75 | 1012.4 |
| 20260506121245 | 37 | 279 | 0.0 | 0.0 | 0.00 | 0.00 | 0.00 | 77 | 1012.3 |
| 20260506120730 | 36 | 306 | 0.0 | 0.0 | 0.00 | 0.00 | 0.00 | 80 | 1012.3 |
| 20260506120248 | 36 | 306 | 0.0 | 0.0 | 0.00 | 0.00 | 0.00 | 83 | 1012.3 |
| 20260506115726 | 35 | 306 | 0.0 | 0.0 | 0.00 | 0.00 | 0.00 | 83 | 1012.3 |
| 20260506115239 | 35 | 306 | 0.0 | 0.0 | 0.00 | 0.00 | 0.00 | 85 | 1012.3 |
| 20260506114738 | 34 | 306 | 0.0 | 0.0 | 0.00 | 0.00 | 0.00 | 87 | 1012.2 |
| 20260506114242 | 34 | 306 | 0.0 | 0.0 | 0.00 | 0.00 | 0.00 | 88 | 1012.2 |
| 20260506113746 | 33 | 306 | 0.0 | 0.0 | 0.00 | 0.00 | 0.00 | 89 | 1012.3 |
| 20260506113222 | 32 | 306 | 0.0 | 0.0 | 0.00 | 0.00 | 0.00 | 89 | 1012.2 |
| 20260506112728 | 32 | 306 | 0.0 | 0.0 | 0.00 | 0.00 | 0.00 | 89 | 1012.0 |
| 20260506112241 | 31 | 306 | 0.0 | 0.0 | 0.00 | 0.00 | 0.00 | 88 | 1011.9 |
| 20260506111726 | 30 | 306 | 0.0 | 0.0 | 0.00 | 0.00 | 0.00 | 88 | 1011.8 |
| 20260506111239 | 30 | 306 | 0.0 | 0.0 | 0.00 | 0.00 | 0.00 | 88 | 1011.8 |
| 20260506110740 | 30 | 306 | 0.0 | 0.0 | 0.00 | 0.00 | 0.00 | 88 | 1011.8 |
| 20260506110246 | 30 | 306 | 0.0 | 0.0 | 0.00 | 0.00 | 0.00 | 89 | 1011.8 |
| 20260506105744 | 30 | 306 | 0.0 | 0.0 | 0.00 | 0.00 | 0.00 | 89 | 1011.7 |
| 20260506105229 | 30 | 306 | 0.0 | 0.0 | 0.00 | 0.00 | 0.00 | 89 | 1011.7 |
| 20260506104741 | 30 | 306 | 0.0 | 0.0 | 0.00 | 0.00 | 0.00 | 89 | 1011.7 |
| 20260506104226 | 30 | 306 | 0.0 | 0.0 | 0.00 | 0.00 | 0.00 | 89 | 1011.7 |
| 20260506103738 | 30 | 306 | 0.0 | 0.0 | 0.00 | 0.00 | 0.00 | 89 | 1011.6 |
| 20260506103237 | 30 | 306 | 0.0 | 0.0 | 0.00 | 0.00 | 0.00 | 89 | 1011.6 |
| 20260506102733 | 30 | 306 | 0.0 | 0.0 | 0.00 | 0.00 | 0.00 | 89 | 1011.6 |
| 20260506102237 | 30 | 306 | 0.0 | 0.0 | 0.00 | 0.00 | 0.00 | 89 | 1011.6 |
| 20260506101740 | 30 | 306 | 0.0 | 0.0 | 0.00 | 0.00 | 0.00 | 88 | 1011.5 |
| 20260506101222 | 31 | 306 | 0.0 | 0.0 | 0.00 | 0.00 | 0.00 | 88 | 1011.6 |
| 20260506100734 | 31 | 306 | 0.0 | 0.0 | 0.00 | 0.00 | 0.00 | 87 | 1011.5 |
| 20260506100246 | 31 | 306 | 0.0 | 0.0 | 0.00 | 0.00 | 0.00 | 87 | 1011.5 |
| 20260506095738 | 32 | 306 | 0.0 | 0.0 | 0.00 | 0.00 | 0.00 | 86 | 1011.6 |
| 20260506095222 | 32 | 306 | 0.0 | 0.0 | 0.00 | 0.00 | 0.00 | 85 | 1011.5 |
| 20260506094736 | 33 | 306 | 0.0 | 0.0 | 0.00 | 0.00 | 0.00 | 84 | 1011.4 |
| 20260506094223 | 34 | 306 | 0.0 | 0.0 | 0.00 | 0.00 | 0.00 | 82 | 1011.5 |
| 20260506093738 | 34 | 306 | 0.0 | 0.0 | 0.00 | 0.00 | 0.00 | 81 | 1011.4 |
| 20260506093224 | 34 | 306 | 0.0 | 3.0 | 0.00 | 0.00 | 0.00 | 81 | 1011.3 |
| 20260506092729 | 35 | 306 | 0.0 | 4.0 | 0.00 | 0.00 | 0.00 | 81 | 1011.3 |
| 20260506092243 | 35 | 306 | 2.0 | 4.0 | 0.00 | 0.00 | 0.00 | 81 | 1011.3 |
| 20260506091727 | 35 | 306 | 3.0 | 4.0 | 0.00 | 0.00 | 0.00 | 80 | 1011.2 |
| 20260506091236 | 35 | 306 | 2.0 | 5.0 | 0.00 | 0.00 | 0.00 | 81 | 1011.2 |
| 20260506090741 | 35 | 306 | 3.0 | 6.0 | 0.00 | 0.00 | 0.00 | 80 | 1011.3 |
| 20260506090247 | 35 | 306 | 3.0 | 8.0 | 0.00 | 0.00 | 0.00 | 80 | 1011.3 |
| 20260506085725 | 35 | 306 | 4.0 | 8.0 | 0.00 | 0.00 | 0.00 | 79 | 1011.3 |
| 20260506085221 | 35 | 306 | 4.0 | 8.0 | 0.00 | 0.00 | 0.00 | 79 | 1011.4 |
| 20260506084735 | 35 | 305 | 5.0 | 8.0 | 0.00 | 0.00 | 0.00 | 78 | 1011.4 |
| 20260506084223 | 35 | 306 | 5.0 | 8.0 | 0.00 | 0.00 | 0.00 | 78 | 1011.4 |
| 20260506083736 | 35 | 306 | 4.0 | 9.0 | 0.00 | 0.00 | 0.00 | 77 | 1011.5 |
| 20260506083239 | 35 | 299 | 4.0 | 8.0 | 0.00 | 0.00 | 0.00 | 77 | 1011.5 |
| 20260506082736 | 36 | 298 | 5.0 | 8.0 | 0.00 | 0.00 | 0.00 | 76 | 1011.5 |
| 20260506082221 | 36 | 296 | 5.0 | 8.0 | 0.00 | 0.00 | 0.00 | 76 | 1011.6 |
| 20260506081736 | 36 | 292 | 4.0 | 8.0 | 0.00 | 0.00 | 0.00 | 76 | 1011.6 |
| 20260506081224 | 36 | 294 | 5.0 | 9.0 | 0.00 | 0.00 | 0.00 | 75 | 1011.6 |
| 20260506080736 | 36 | 296 | 5.0 | 10.0 | 0.00 | 0.00 | 0.00 | 76 | 1011.5 |
| 20260506080221 | 36 | 293 | 3.0 | 10.0 | 0.00 | 0.00 | 0.00 | 76 | 1011.4 |
| 20260506073221 | 36 | 298 | 5.0 | 9.0 | 0.00 | 0.00 | 0.00 | 74 | 1011.4 |
| 20260506072726 | 36 | 294 | 3.0 | 6.0 | 0.00 | 0.00 | 0.00 | 73 | 1011.4 |
| 20260506072239 | 36 | 298 | 4.0 | 6.0 | 0.00 | 0.00 | 0.00 | 72 | 1011.5 |
| 20260506071725 | 36 | 326 | 3.0 | 6.0 | 0.00 | 0.00 | 0.00 | 71 | 1011.6 |
| 20260506071234 | 36 | 331 | 2.0 | 6.0 | 0.00 | 0.00 | 0.00 | 71 | 1011.6 |
| 20260506070739 | 36 | 340 | 4.0 | 6.0 | 0.00 | 0.00 | 0.00 | 71 | 1011.6 |
| 20260506070243 | 36 | 344 | 3.0 | 4.0 | 0.00 | 0.00 | 0.00 | 71 | 1011.6 |
| 20260506062232 | 37 | 355 | 4.0 | 11.0 | 0.00 | 0.00 | 0.00 | 71 | 1011.7 |
| 20260506061744 | 37 | 327 | 8.0 | 11.0 | 0.00 | 0.00 | 0.00 | 70 | 1011.5 |
| 20260506061227 | 37 | 325 | 6.0 | 11.0 | 0.00 | 0.00 | 0.00 | 70 | 1011.7 |
| 20260506060738 | 37 | 341 | 5.0 | 9.0 | 0.00 | 0.00 | 0.00 | 72 | 1011.6 |
| 20260506060223 | 37 | 335 | 5.0 | 9.0 | 0.00 | 0.00 | 0.00 | 71 | 1011.6 |
| 20260506051245 | 38 | 30 | 0.0 | 0.0 | 0.00 | 0.00 | 0.00 | 71 | 1011.4 |
| 20260506050731 | 38 | 30 | 0.0 | 0.0 | 0.00 | 0.00 | 0.00 | 71 | 1011.4 |
| 20260506050244 | 38 | 30 | 0.0 | 0.0 | 0.00 | 0.00 | 0.00 | 71 | 1011.2 |
| 20260506044734 | 38 | 30 | 0.0 | 4.0 | 0.00 | 0.00 | 0.00 | 71 | 1011.3 |
| 20260506044220 | 38 | 30 | 1.0 | 5.0 | 0.00 | 0.00 | 0.00 | 70 | 1011.2 |
| 20260506043735 | 38 | 30 | 3.0 | 5.0 | 0.00 | 0.00 | 0.00 | 70 | 1011.2 |
| 20260506043242 | 38 | 31 | 2.0 | 4.0 | 0.00 | 0.00 | 0.00 | 69 | 1011.2 |
| 20260506042720 | 38 | 31 | 2.0 | 5.0 | 0.00 | 0.00 | 0.00 | 70 | 1011.2 |
| 20260506042235 | 38 | 31 | 3.0 | 5.0 | 0.00 | 0.00 | 0.00 | 70 | 1011.1 |
| 20260506041721 | 38 | 32 | 3.0 | 6.0 | 0.00 | 0.00 | 0.00 | 70 | 1011.3 |
| 20260506041237 | 38 | 34 | 3.0 | 6.0 | 0.00 | 0.00 | 0.00 | 70 | 1011.2 |
| 20260506040740 | 38 | 35 | 4.0 | 9.0 | 0.00 | 0.00 | 0.00 | 70 | 1011.1 |
| 20260506040245 | 38 | 31 | 4.0 | 9.0 | 0.00 | 0.00 | 0.00 | 71 | 1011.1 |
| 20260506035734 | 38 | 30 | 3.0 | 8.0 | 0.00 | 0.00 | 0.00 | 71 | 1011.1 |
| 20260506035241 | 38 | 37 | 5.0 | 9.0 | 0.00 | 0.00 | 0.00 | 71 | 1011.0 |
| 20260506034725 | 38 | 32 | 5.0 | 9.0 | 0.00 | 0.00 | 0.00 | 70 | 1011.0 |
| 20260506034240 | 38 | 27 | 5.0 | 10.0 | 0.00 | 0.00 | 0.00 | 71 | 1011.0 |
| 20260506033726 | 38 | 17 | 5.0 | 11.0 | 0.00 | 0.00 | 0.00 | 71 | 1011.0 |
| 20260506033240 | 38 | 43 | 7.0 | 11.0 | 0.00 | 0.00 | 0.00 | 72 | 1010.9 |
| 20260506032735 | 39 | 17 | 7.0 | 11.0 | 0.00 | 0.00 | 0.00 | 72 | 1010.9 |
| 20260506032221 | 39 | 11 | 7.0 | 12.0 | 0.00 | 0.00 | 0.00 | 72 | 1011.0 |
| 20260506031736 | 39 | 13 | 7.0 | 13.0 | 0.00 | 0.00 | 0.00 | 72 | 1010.7 |
| 20260506031223 | 39 | 344 | 5.0 | 12.0 | 0.00 | 0.00 | 0.00 | 73 | 1010.8 |
| 20260506030737 | 39 | 13 | 7.0 | 12.0 | 0.00 | 0.00 | 0.00 | 73 | 1010.7 |
| 20260506030241 | 39 | 5 | 5.0 | 10.0 | 0.00 | 0.00 | 0.00 | 74 | 1010.7 |
| 20260506025739 | 39 | 348 | 6.0 | 10.0 | 0.00 | 0.00 | 0.00 | 73 | 1010.6 |
| 20260506025225 | 39 | 34 | 7.0 | 13.0 | 0.00 | 0.00 | 0.00 | 74 | 1010.5 |
| 20260506024735 | 39 | 19 | 8.0 | 13.0 | 0.00 | 0.00 | 0.00 | 76 | 1010.4 |
| 20260506024221 | 40 | 22 | 4.0 | 11.0 | 0.00 | 0.00 | 0.00 | 76 | 1010.3 |
| 20260506023736 | 40 | 17 | 6.0 | 12.0 | 0.00 | 0.00 | 0.00 | 76 | 1010.3 |
| 20260506023244 | 40 | 5 | 9.0 | 12.0 | 0.00 | 0.00 | 0.00 | 76 | 1010.4 |
| 20260506022721 | 40 | 355 | 6.0 | 12.0 | 0.00 | 0.00 | 0.00 | 76 | 1010.2 |
| 20260506022237 | 40 | 9 | 7.0 | 13.0 | 0.00 | 0.00 | 0.00 | 76 | 1010.1 |
| 20260506021722 | 40 | 341 | 9.0 | 13.0 | 0.00 | 0.00 | 0.00 | 76 | 1010.0 |
| 20260506021237 | 40 | 5 | 9.0 | 15.0 | 0.00 | 0.00 | 0.00 | 77 | 1010.1 |
| 20260506020739 | 41 | 343 | 8.0 | 15.0 | 0.00 | 0.00 | 0.00 | 78 | 1009.9 |
| 20260506020245 | 41 | 38 | 7.0 | 11.0 | 0.00 | 0.00 | 0.00 | 79 | 1009.7 |